Simultaneous Nadir Overpasses (SNOs) Predictions

Prediction of SNOs between GOES-16 and AQUA Satellite Orbit:

Table of predicted SNOs for the next 14.0 days since TLE Epoch: 6/11/2022
Index Date Time (GOES-16) GOES-16 Lat,Lon AQUA Lat,Lon Distance(km) Time Diff (sec)
1 06/11/2022 06:24:29 0.01, -75.20 -0.69, -71.92 372.58 80
2 06/11/2022 18:48:28 -0.01, -75.20 -0.39, -77.09 214.42 80
3 06/13/2022 18:33:15 -0.00, -75.21 0.25, -74.04 133.03 80
4 06/14/2022 06:57:05 0.01, -75.21 0.85, -79.17 450.25 80
5 06/15/2022 18:23:22 0.00, -75.21 0.89, -70.98 480.65 80
6 06/16/2022 06:44:32 -0.00, -75.22 0.20, -76.11 102.57 80
7 06/18/2022 06:29:19 -0.00, -75.23 -0.46, -73.06 246.00 80
8 06/18/2022 18:50:36 0.00, -75.23 -0.66, -78.22 340.81 80
9 06/20/2022 18:40:44 0.00, -75.26 0.01, -75.17 9.32 80
10 06/22/2022 18:28:11 0.00, -75.29 0.70, -72.13 360.31 80
11 06/23/2022 06:49:20 -0.00, -75.30 0.39, -77.26 221.85 80
